timestamp,surface_pressure_avg,surface_temp_avg,battery_voltage,lat,long
2023-11-06 11:19:00+00:00,255.0764,9.4,10.5,47.84626,-54.09684
2023-11-06 11:29:00+00:00,253.8614,9.4,10.5,47.84626,-54.09684
2023-11-06 11:39:00+00:00,252.7231,9.3,10.5,47.84626,-54.09684
2023-11-06 11:49:00+00:00,254.2981,9.3,10.5,47.84626,-54.09684
2023-11-06 11:59:00+00:00,252.638,9.3,10.5,47.84626,-54.09684
2023-11-06 12:09:00+00:00,250.5597,9.35,10.5,47.84626,-54.09684
2023-11-06 12:19:00+00:00,251.1614,9.39,11.14,47.84626,-54.09684
2023-11-06 12:29:00+00:00,255.0798,9.4,11.14,47.84626,-54.09684
2023-11-06 12:39:00+00:00,251.6247,9.4,11.14,47.84626,-54.09684
2023-11-06 12:49:00+00:00,244.5247,9.4,11.14,47.84626,-54.09684
2023-11-06 12:59:00+00:00,246.2831,9.4,11.14,47.84626,-54.09684
2023-11-06 13:09:00+00:00,250.4348,9.43,11.14,47.84626,-54.09684
2023-11-06 13:19:00+00:00,247.8564,9.48,11.3,47.84626,-54.09684
2023-11-06 13:29:00+00:00,243.0731,9.4,11.3,47.84626,-54.09684
2023-11-06 13:39:00+00:00,248.0481,9.3,11.3,47.84626,-54.09684
2023-11-06 13:49:00+00:00,257.8014,9.3,11.3,47.84626,-54.09684
2023-11-06 13:59:00+00:00,255.8431,9.31,11.3,47.84626,-54.09684
2023-11-06 14:09:00+00:00,252.7014,9.4,11.3,47.84626,-54.09684
2023-11-06 14:19:00+00:00,261.6931,9.44,11.3,47.84626,-54.09684
2023-11-06 14:29:00+00:00,268.5881,9.4,11.3,47.84626,-54.09684
2023-11-06 14:39:00+00:00,264.2764,9.29,11.3,47.84626,-54.09684
2023-11-06 14:49:00+00:00,265.1214,9.3,11.3,47.84626,-54.09684
2023-11-06 14:59:00+00:00,274.1263,9.2,11.3,47.84626,-54.09684
2023-11-06 15:09:00+00:00,275.0897,9.35,11.3,47.84626,-54.09684
2023-11-06 15:19:01+00:00,271.7681,9.2,11.37,47.84626,-54.09684
2023-11-06 15:29:01+00:00,277.5547,9.23,11.37,47.84626,-54.09684
2023-11-06 15:39:01+00:00,285.0747,9.4,11.37,47.84626,-54.09684
2023-11-06 15:49:01+00:00,288.6263,9.39,11.37,47.84626,-54.09684
2023-11-06 15:59:01+00:00,291.063,9.3,11.37,47.84626,-54.09684
2023-11-06 16:09:01+00:00,297.6413,9.3,11.37,47.84626,-54.09684
2023-11-06 16:19:00+00:00,304.8914,9.3,11.37,47.84626,-54.09684
2023-11-06 16:29:00+00:00,309.2797,9.3,11.37,47.84626,-54.09684
2023-11-06 16:39:00+00:00,312.508,9.3,11.37,47.84626,-54.09684
2023-11-06 16:49:00+00:00,316.3713,9.3,11.37,47.84626,-54.09684
2023-11-06 16:59:00+00:00,319.2596,9.37,11.37,47.84626,-54.09684
2023-11-06 17:09:00+00:00,322.278,9.4,11.37,47.84626,-54.09684
2023-11-06 17:19:00+00:00,326.8364,9.4,11.37,47.84626,-54.09684
2023-11-06 17:29:00+00:00,331.4846,9.43,11.37,47.84626,-54.09684
2023-11-06 17:39:00+00:00,333.49300000000005,9.4,11.37,47.84626,-54.09684
2023-11-06 17:49:00+00:00,338.36300000000006,9.4,11.37,47.84626,-54.09684
2023-11-06 17:59:00+00:00,343.9547,9.4,11.37,47.84626,-54.09684
2023-11-06 18:09:00+00:00,343.2579,9.4,11.37,47.84626,-54.09684
2023-11-06 18:19:00+00:00,340.6863,9.44,11.3,47.84626,-54.09684
2023-11-06 18:29:00+00:00,342.9497,9.47,11.3,47.84626,-54.09684
2023-11-06 18:39:00+00:00,342.5196,9.5,11.3,47.84626,-54.09684
2023-11-06 18:49:00+00:00,342.7246,9.5,11.3,47.84626,-54.09684
2023-11-06 18:59:00+00:00,343.8763,9.5,11.3,47.84626,-54.09684
2023-11-06 19:09:00+00:00,341.0129,9.5,11.3,47.84626,-54.09684
2023-11-06 19:19:00+00:00,335.9513,9.5,11.14,47.84626,-54.09684
2023-11-06 19:29:00+00:00,335.7913,9.5,11.14,47.84626,-54.09684
2023-11-06 19:39:00+00:00,337.5546,9.5,11.14,47.84626,-54.09684
2023-11-06 19:49:00+00:00,331.6246,9.5,11.14,47.84626,-54.09684
2023-11-06 19:59:00+00:00,330.61800000000005,9.5,11.14,47.84626,-54.09684
2023-11-06 20:09:00+00:00,332.7579,9.5,11.14,47.84626,-54.09684
2023-11-06 20:19:00+00:00,326.918,9.4,11.06,47.84626,-54.09684
2023-11-06 20:29:00+00:00,319.7496,9.4,11.06,47.84626,-54.09684
2023-11-06 20:39:00+00:00,324.1663,9.46,11.06,47.84626,-54.09684
2023-11-06 20:49:00+00:00,327.5513,9.49,11.06,47.84626,-54.09684
2023-11-06 20:59:00+00:00,314.6997,9.46,11.06,47.84626,-54.09684
2023-11-06 21:09:00+00:00,308.238,9.5,11.06,47.84626,-54.09684
2023-11-06 21:19:01+00:00,311.8347,9.5,11.06,47.84626,-54.09684
2023-11-06 21:29:01+00:00,306.6747,9.5,11.06,47.84626,-54.09684
2023-11-06 21:39:01+00:00,293.6481,9.5,11.06,47.84626,-54.09684
2023-11-06 21:49:01+00:00,292.3848,9.5,11.06,47.84626,-54.09684
2023-11-06 21:59:01+00:00,292.6981,9.5,11.06,47.84626,-54.09684
2023-11-06 22:09:01+00:00,286.163,9.5,11.06,47.84626,-54.09684
2023-11-06 22:19:01+00:00,279.1748,9.53,11.06,47.84626,-54.09684
2023-11-06 22:29:01+00:00,279.603,9.5,11.06,47.84626,-54.09684
2023-11-06 22:39:01+00:00,277.1414,9.5,11.06,47.84626,-54.09684
2023-11-06 22:49:01+00:00,270.7815,9.5,11.06,47.84626,-54.09684
2023-11-06 22:59:01+00:00,269.2564,9.5,11.06,47.84626,-54.09684
2023-11-06 23:09:01+00:00,272.2664,9.5,11.06,47.84626,-54.09684
2023-11-06 23:19:00+00:00,268.2748,9.5,11.06,47.84626,-54.09684
2023-11-06 23:29:00+00:00,264.5847,9.5,11.06,47.84626,-54.09684
2023-11-06 23:39:00+00:00,264.9997,9.5,11.06,47.84626,-54.09684
2023-11-06 23:49:00+00:00,264.0547,9.5,11.06,47.84626,-54.09684
2023-11-06 23:59:00+00:00,260.5464,9.5,11.06,47.84626,-54.09684
